Spokane Fairchild, WA

7:46 AM PDT on May 27, 2018 (GMT -0700)
Fairchild Air Force Base

Weather History for KSKA - April, 2013

Change the Weather History Date:

Monday, April 1, 2013

  Actual Average Record
Temperature  
Mean Temperature 54 °F -  
Max Temperature 70 °F 49 °F 70 °F (2013)
Min Temperature 40 °F 30 °F 19 °F (2008)
Degree Days  
Heating Degree Days 10    
Growing Degree Days 4 (Base 50)    
Moisture  
Dew Point 37 °F    
Average Humidity 54    
Maximum Humidity 80    
Minimum Humidity 28    
Precipitation  
Precipitation 0.00 in - - ()
Sea Level Pressure  
Sea Level Pressure 29.96 in    
Wind  
Wind Speed 6 mph (NNW)    
Max Wind Speed 10 mph    
Max Gust Speed -    
Visibility 10 miles    
Events      
Averages and records for this station are not official NWS values.
T = Trace of Precipitation, MM = Missing Value Source: NWS Daily Summary

Daily Weather History Graph

Daily Weather History Graph

Search for Another Location

Airport or City:

Astronomy

Apr. 01, 2013 Rise Set
Actual Time 6:28 AM PDT 7:21 PM PDT
Civil Twilight 5:57 AM PDT 7:52 PM PDT
Nautical Twilight 5:20 AM PDT 8:29 PM PDT
Astronomical Twilight 4:40 AM PDT 9:09 PM PDT
Moon 12:52 AM PDT (4/1) 10:01 AM PDT (4/1)
Length of Visible Light 13h 54m
Length of Day
12h 52m
Waning Gibbous, 66% of the Moon is Illuminated
Apr 1
Waning Gibbous
Apr 2
Last Quarter
Apr 10
New
Apr 18
First Quarter
Apr 25
Full

Hourly Weather History & Observations

Time (PDT) Temp. Windchill Dew Point Humidity Pressure Visibility Wind Dir Wind Speed Gust Speed Precip Events Conditions
12:58 AM 49.6 °F - 34.3 °F 56% 29.94 in 10.0 mi North 3.5 mph - N/A   Clear
1:58 AM 48.2 °F - 35.6 °F 62% 29.94 in 10.0 mi NNE 8.1 mph - N/A   Clear
2:58 AM 47.5 °F - 35.6 °F 63% 29.95 in 10.0 mi NNE 5.8 mph - N/A   Clear
3:58 AM 44.1 °F 40.1 °F 35.1 °F 71% 29.95 in 10.0 mi NNE 6.9 mph - N/A   Clear
4:58 AM 41.4 °F 36.8 °F 34.5 °F 77% 29.95 in 10.0 mi North 6.9 mph - N/A   Clear
5:58 AM 40.5 °F 36.5 °F 34.9 °F 80% 29.95 in 10.0 mi North 5.8 mph - N/A   Clear
6:58 AM 40.3 °F 35.5 °F 34.7 °F 80% 29.96 in 10.0 mi North 6.9 mph - N/A   Clear
7:58 AM 44.8 °F 41.6 °F 36.7 °F 73% 29.98 in 10.0 mi North 5.8 mph - N/A   Clear
8:58 AM 49.8 °F - 36.9 °F 61% 29.97 in 10.0 mi NNE 10.4 mph - N/A   Clear
9:58 AM 52.9 °F - 37.0 °F 55% 29.99 in 10.0 mi Variable 5.8 mph - N/A   Clear
10:58 AM 56.5 °F - 38.7 °F 51% 29.99 in 10.0 mi NNE 5.8 mph - N/A   Clear
11:58 AM 61.0 °F - 37.8 °F 42% 29.99 in 10.0 mi ENE 8.1 mph - N/A   Clear
12:58 PM 63.1 °F - 37.9 °F 39% 29.97 in 10.0 mi Calm Calm - N/A   Clear
1:58 PM 66.2 °F - 40.1 °F 38% 29.96 in 10.0 mi WSW 3.5 mph - N/A   Clear
2:58 PM 67.1 °F - 35.2 °F 31% 29.95 in 10.0 mi ENE 1.2 mph - N/A   Clear
3:58 PM 69.6 °F - 35.4 °F 28% 29.94 in 10.0 mi Variable 2.3 mph - N/A   Clear
4:58 PM 68.0 °F - 35.6 °F 30% 29.95 in 10.0 mi South 5.8 mph - N/A   Clear
5:58 PM 67.5 °F - 37.0 °F 33% 29.94 in 10.0 mi SW 8.1 mph - N/A   Clear
6:58 PM 63.9 °F - 39.4 °F 41% 29.95 in 10.0 mi WSW 8.1 mph - N/A   Clear
7:58 PM 57.2 °F - 39.4 °F 51% 29.96 in 10.0 mi SW 6.9 mph - N/A   Clear
8:58 PM 54.7 °F - 37.6 °F 53% 29.97 in 10.0 mi SW 8.1 mph - N/A   Clear
9:58 PM 52.2 °F - 37.0 °F 56% 29.98 in 10.0 mi SW 8.1 mph - N/A   Clear
10:58 PM 50.7 °F - 37.8 °F 61% 29.98 in 10.0 mi SSW 9.2 mph - N/A   Clear
11:58 PM 51.3 °F - 38.3 °F 61% 29.97 in 10.0 mi SSW 8.1 mph - N/A   Clear